Regional Weather Roundup
Issued by NWS Charleston, WV

Home | Current Version | Previous Version | Graphics & Text | Print | Product List | Glossary On
Versions: 1 2 3 4 5 6 7 8 9 10 11 12 13 14 15 16 17 18 19 20 21 22 23 24 25 26 27 28 29 30 31 32 33 34 35 36 37 38 39 40 41 42 43 44 45 46 47 48 49 50
000
ASUS41 KRLX 080210
RWRRLX
West Virginia Regional Weather Roundup
National Weather Service Charleston WV
900 PM EST WED DEC 07 2016

Note: "fair" indicates few or no clouds below 12,000 feet with no
significant weather and/or obstructions to visibility.

WVZ003-080300-
Northern Panhandle of West Virginia

CITY           SKY/WX    TMP DP  RH WIND       PRES   REMARKS
WHEELING       CLOUDY    35  21  56 W6        30.06F
$$

WVZ009-080300-
Northwest West Virginia

CITY           SKY/WX    TMP DP  RH WIND       PRES   REMARKS
PARKERSBURG    CLOUDY    38  25  59 CALM      30.12F
$$

WVZ006-080300-
Western West Virginia

CITY           SKY/WX    TMP DP  RH WIND       PRES   REMARKS
HUNTINGTON     CLOUDY    37  25  61 NW3       30.12R
$$

WVZ015-080300-
West Central West Virginia

CITY           SKY/WX    TMP DP  RH WIND       PRES   REMARKS
CHARLESTON     CLOUDY    33  28  81 S3        30.09F
$$

WVZ022-031-080300-
North Central West Virginia

CITY           SKY/WX    TMP DP  RH WIND       PRES   REMARKS
CLARKSBURG     MOCLDY    34  25  69 CALM      30.08S
MORGANTOWN     CLOUDY    35  25  66 S3        30.08S
$$

WVZ025-035-042-045-080300-
Southern West Virginia

CITY           SKY/WX    TMP DP  RH WIND       PRES   REMARKS
BECKLEY        CLEAR     31  21  66 CALM      30.05F
LOGAN            N/A     36  28  75 CALM      30.08F
BLUEFIELD      CLOUDY    34  27  75 W3        30.06S
LEWISBURG      CLEAR     29  20  68 CALM      30.05S
$$

WVZ047-080300-
Northern Mountains of West Virginia

CITY           SKY/WX    TMP DP  RH WIND       PRES   REMARKS
ELKINS         CLOUDY    26  22  84 CALM      30.08R
$$

WVZ052-080300-
Eastern Panhandle of West Virginia

CITY           SKY/WX    TMP DP  RH WIND       PRES   REMARKS
MARTINSBURG    CLEAR     40  21  46 W7        30.06S
PETERSBURG     CLOUDY    31  28  88 CALM      30.09S
$$



USA.gov is the U.S. government's official web portal to all federal, state and local government web resources and services.